Simultaneous Nadir Overpasses (SNOs) Predictions

Prediction of SNOs between GOES-15 and METOP-B Satellite Orbit:

Table of predicted SNOs for the next 14.0 days since TLE Epoch: 10/11/2019
Index Date Time (GOES-15) GOES-15 Lat,Lon METOP-B Lat,Lon Distance(km) Time Diff (sec)
1 10/12/2019 18:10:51 -0.29,-127.98 0.28,-130.64 302.66 80
2 10/13/2019 17:52:51 -0.29,-128.02 -0.79,-125.64 270.48 80
3 10/15/2019 06:11:51 0.30,-128.06 -0.20,-130.24 248.26 80
4 10/16/2019 05:48:31 0.29,-128.09 0.93,-125.25 324.00 80
5 10/17/2019 18:07:23 -0.29,-128.13 0.09,-129.81 191.66 80
6 10/18/2019 17:49:23 -0.29,-128.16 -1.04,-124.82 380.56 80
7 10/20/2019 06:08:23 0.29,-128.19 -0.00,-129.41 139.01 80
8 10/21/2019 05:45:03 0.28,-128.21 1.13,-124.42 432.26 80
9 10/22/2019 18:03:54 -0.28,-128.23 -0.11,-128.98 85.24 80
10 10/23/2019 17:45:55 -0.28,-128.25 -1.24,-123.99 486.17 80
11 10/25/2019 06:04:54 0.28,-128.28 0.21,-128.58 33.71 80




NCC Satellite Simultaneous Nadir Overpasses (SNOs) Prediction Service
